{"data":{"norad_id":63151,"epoch":"2026-09-21T13:28:51.328416Z","epoch_age_seconds":70420,"freshness":"FRESH","line1":"1 63151U 25043V   26264.56170519  .00014585  00000+0  53819-3 0  9995","line2":"2 63151  42.9980 349.5912 0001470  96.3392 263.7627 15.27597163 87326","mean_motion":15.27597163,"eccentricity":0.000147,"inclination_deg":42.998,"raan_deg":349.5912,"arg_perigee_deg":96.3392,"mean_anomaly_deg":263.7627,"bstar":0.00053819,"rev_number":8732,"period_min":94.265689599215,"perigee_km":481.98911752293,"apogee_km":484.006291126,"semimajor_km":6861.1347043245,"source":"CELESTRAK","updated_at":"2026-09-22T09:00:49.793810Z"}}